GFSFLT2_sfc_temp_111.txt.gz
Temp
52 54 55 57 57 58 59 59 59 57 59 58 58 57 58 58 59 60 61 62 63 64 64 63 63 62 62
48 49 50 50 50 53 55 54 56 56 57 57 57 57 57 57 57 57 58 59 61 61 62 62 62 61 62
44 47 48 47 47 48 48 49 50 51 54 54 55 56 56 56 56 56 56 57 58 58 59 59 59 60 61
41 43 45 46 46 45 46 46 47 49 51 52 53 54 55 55 55 54 54 55 57 57 56 55 56 58 59
37 38 40 42 43 45 44 46 46 46 46 48 50 52 53 54 53 52 53 55 56 55 55 54 54 55 56
36 36 37 38 42 39 40 40 40 44 44 46 49 49 51 52 52 52 53 53 53 53 53 53 53 53 53
34 35 36 38 38 36 36 38 39 44 44 43 44 46 49 50 52 51 51 52 52 52 52 51 51 51 51
36 35 37 38 37 38 37 38 39 41 43 40 42 42 44 47 50 51 50 51 51 51 51 50 50 50 50
43 43 43 43 42 37 32 34 34 37 40 40 38 39 40 42 46 50 50 50 50 50 50 50 49 49 48
34 34 37 35 41 35 32 33 34 34 35 35 37 36 36 38 40 46 48 49 49 49 49 48 48 45 42
32 30 30 31 32 35 36 33 32 33 38 37 34 34 34 34 35 38 44 46 47 47 48 48 47 45 40
30 28 27 27 28 29 32 33 33 33 36 36 33 35 34 33 34 35 38 43 45 43 44 47 47 47 45
29 28 28 28 29 29 31 32 30 34 37 35 34 35 36 36 34 33 35 37 41 42 41 42 42 42 40
30 30 29 23 27 31 29 28 28 30 34 35 34 35 34 36 37 33 37 35 38 40 40 41 41 41 40
29 30 29 28 27 26 28 28 28 30 32 35 34 34 35 35 34 37 36 34 37 38 37 37 38 39 39
28 26 25 24 25 23 26 28 27 29 31 33 33 32 31 33 38 36 36 36 36 37 38 36 35 37 38
27 28 26 23 27 20 21 22 25 28 30 32 32 31 29 29 32 39 34 35 35 35 37 37 35 35 37

GFSFLT2_sfc_temp_114.txt.gz
Temp
47 50 51 51 52 53 56 58 58 57 58 58 58 57 58 58 59 60 61 61 62 65 65 65 65 64 63
43 44 46 49 49 49 51 52 52 54 57 58 58 57 57 57 57 58 58 59 60 61 63 64 64 63 62
39 43 45 47 46 47 48 48 50 50 53 53 54 55 56 56 56 56 55 56 57 57 59 61 62 62 62
37 39 41 43 44 43 43 46 46 49 50 51 52 52 53 54 54 53 53 54 55 56 57 58 58 59 59
34 36 37 38 38 40 39 41 44 45 46 47 49 50 51 53 52 51 52 52 53 55 56 57 56 57 57
31 32 34 36 37 36 36 35 36 44 42 43 46 47 49 51 52 52 51 52 53 53 55 56 55 55 55
30 31 32 35 37 35 33 33 35 39 39 38 43 43 47 49 51 51 51 51 52 53 54 54 53 53 53
33 33 34 35 35 35 34 34 35 36 37 35 40 40 44 46 49 50 51 51 51 51 52 52 51 51 51
42 42 43 43 41 34 30 30 30 32 36 34 35 37 39 41 45 48 50 50 50 51 51 50 50 50 50
33 34 36 34 39 33 29 30 31 30 34 33 35 35 36 37 37 40 46 49 50 50 50 49 49 47 45
31 31 30 30 30 30 31 27 28 31 34 30 30 32 33 35 36 37 40 43 47 48 49 48 48 47 42
29 29 29 28 27 27 29 28 31 32 32 31 28 29 31 31 33 35 35 40 43 42 44 48 48 47 47
27 28 29 30 27 25 27 29 29 30 33 31 31 33 32 31 32 35 35 37 39 38 39 42 43 43 41
27 28 29 27 28 25 24 24 24 26 29 31 32 33 32 33 33 33 37 35 35 37 39 41 42 43 42
27 27 29 29 28 26 25 23 19 22 27 27 33 34 34 33 32 34 35 36 36 38 37 37 38 40 41
26 26 26 24 25 23 23 24 24 24 24 26 31 32 32 33 36 33 35 36 36 37 38 37 36 38 40
26 27 26 26 27 24 24 22 21 22 23 27 28 29 28 27 28 38 34 35 36 35 37 37 35 36 38

GFSFLT2_sfc_temp_117.txt.gz
Temp
42 43 44 45 47 49 51 52 52 53 54 57 58 58 59 59 59 60 61 62 63 64 65 65 65 65 64
38 39 40 43 44 44 48 50 48 51 52 53 54 56 57 57 57 58 58 59 60 61 63 64 64 64 64
34 38 40 41 40 43 43 43 46 48 51 52 53 53 53 55 56 56 56 56 56 57 58 59 61 63 63
33 34 36 39 40 38 38 41 41 46 48 48 49 50 52 53 53 52 52 53 55 56 56 56 57 59 61
30 31 32 33 34 37 36 37 38 43 41 42 43 46 49 51 50 50 51 52 53 54 55 55 55 56 58
29 29 30 32 33 34 34 32 30 40 37 37 42 43 45 47 50 50 50 51 51 52 53 54 54 54 55
30 29 30 32 33 30 30 31 31 36 36 33 39 39 44 47 48 48 49 50 51 51 51 52 53 54 54
32 32 32 33 33 36 32 30 33 35 36 30 37 35 40 43 47 48 48 49 50 50 51 51 51 52 53
40 41 41 42 40 35 29 27 28 30 33 32 32 35 36 38 42 45 46 47 48 50 50 51 51 51 52
31 33 35 33 39 33 31 25 27 25 32 31 31 30 29 35 38 41 42 46 47 49 50 50 50 52 50
29 29 31 30 31 31 30 26 22 23 32 31 27 29 28 30 33 37 38 39 42 46 49 49 49 49 46
27 27 27 28 28 28 29 28 26 28 31 30 28 24 26 26 28 32 35 37 38 40 43 47 48 48 48
26 28 28 28 29 26 28 29 27 28 32 27 24 28 25 27 28 31 32 33 37 38 39 41 43 41 40
26 27 28 23 27 27 24 26 22 26 28 29 27 27 28 30 31 30 33 31 35 37 36 38 41 41 41
26 26 28 28 28 26 25 23 21 20 23 24 27 29 31 32 30 31 31 33 35 36 36 35 36 39 40
26 27 26 26 26 27 21 22 21 21 20 23 23 23 23 32 35 31 33 33 35 36 36 36 36 37 39
22 21 24 25 26 24 23 22 22 17 20 21 23 24 22 22 24 38 31 33 34 35 36 36 36 36 38

GFSFLT2_sfc_temp_120.txt.gz
Temp
38 39 39 40 43 44 46 45 45 48 49 53 52 52 54 56 59 61 62 64 65 66 67 67 66 65 65
35 34 35 38 40 40 44 45 43 46 47 50 49 49 49 53 54 58 59 60 61 62 63 64 65 65 64
32 34 34 35 36 38 40 40 43 44 47 46 45 46 47 51 51 52 53 57 57 58 59 61 62 63 64
30 32 32 35 35 34 34 37 37 42 44 43 44 44 45 47 47 49 49 51 53 56 56 56 56 58 61
32 33 31 31 31 33 32 34 35 38 37 38 38 39 42 45 46 48 49 50 51 52 54 55 55 55 57
30 29 29 29 31 31 31 30 29 35 34 35 38 36 40 43 47 46 47 48 50 50 51 52 53 53 55
29 28 29 31 31 30 31 32 30 34 33 31 36 35 38 42 44 46 47 48 48 49 50 50 51 52 53
30 31 31 34 35 35 33 32 30 31 32 27 34 33 37 39 44 46 46 46 47 48 49 50 50 50 51
40 40 40 40 39 34 30 28 27 28 30 31 31 31 34 35 40 42 44 44 45 46 46 48 49 50 50
30 32 34 32 37 31 28 26 27 25 29 25 28 28 27 32 34 36 37 41 42 44 45 47 48 49 50
28 28 28 29 29 30 30 27 26 25 29 26 23 25 27 28 31 33 33 34 36 39 44 44 46 48 47
26 26 26 26 27 27 29 28 28 28 30 27 27 22 24 24 25 30 32 34 34 35 36 41 45 49 48
26 27 26 26 28 27 28 28 27 29 31 27 21 24 18 24 24 27 29 30 33 33 35 37 39 42 39
25 26 27 26 28 29 27 28 25 25 28 27 25 22 23 26 27 27 30 26 31 33 33 36 39 40 40
25 26 28 28 27 28 27 26 22 22 23 24 25 26 26 25 23 28 31 31 33 32 32 33 36 38 39
24 25 23 22 23 25 27 23 23 22 21 19 15 16 17 23 31 28 30 31 32 32 31 32 33 37 39
23 21 20 20 23 23 24 24 22 21 19 14 10 20 19 18 22 36 30 31 32 32 33 33 33 35 37

GFSFLT2_sfc_temp_123.txt.gz
Temp
44 45 43 43 44 46 47 47 48 47 48 48 49 48 48 49 50 51 52 55 61 64 66 67 67 67 67
40 41 41 43 43 42 44 46 46 46 47 48 47 47 47 46 48 49 50 51 53 57 63 64 65 66 66
37 40 41 41 40 41 42 43 45 44 46 46 46 46 45 47 46 47 48 49 50 52 55 61 62 62 65
36 37 39 40 39 37 37 41 40 44 45 44 45 45 45 44 45 45 45 46 49 50 51 52 57 60 62
35 35 36 35 34 37 35 37 39 42 40 41 42 42 43 43 43 45 46 47 48 49 50 51 51 57 59
34 33 34 35 36 35 33 32 30 42 38 38 42 40 42 43 44 44 46 48 48 48 49 50 50 51 53
34 34 34 36 36 34 34 34 34 38 37 34 40 38 42 43 43 44 44 43 43 45 45 47 48 50 51
37 37 38 38 39 38 36 35 36 37 38 31 38 37 39 41 42 43 43 42 41 43 44 44 45 47 49
40 40 40 40 40 37 33 30 28 32 36 33 36 35 37 38 41 41 42 40 40 41 42 44 46 46 49
37 38 37 37 37 36 34 29 28 28 37 31 33 33 30 37 38 39 38 39 40 40 41 43 43 43 45
34 34 34 34 35 36 35 32 28 27 34 33 31 32 31 31 34 37 37 36 36 38 40 40 43 44 43
31 31 31 31 32 33 33 33 33 30 34 33 29 30 29 28 28 34 35 35 37 36 37 39 42 42 43
29 29 31 31 31 31 32 32 32 32 33 33 31 31 30 27 27 29 30 33 35 35 36 36 37 38 37
29 30 31 30 29 31 29 29 27 28 33 33 32 30 28 30 29 27 31 28 34 35 35 36 38 39 38
28 28 28 29 29 30 27 26 24 26 28 31 32 31 30 28 25 29 29 31 34 34 34 34 37 37 37
27 27 25 25 25 26 27 26 25 26 25 27 27 26 29 30 32 28 29 31 33 34 33 31 33 37 38
26 25 25 24 24 24 24 24 24 24 25 27 24 23 22 22 30 35 29 30 31 31 34 34 32 35 38

GFSFLT2_sfc_temp_126.txt.gz
Temp
48 50 48 48 48 49 49 49 50 49 48 48 49 48 49 49 49 50 50 51 52 53 55 56 59 63 66
43 44 45 47 47 46 47 49 49 48 47 48 48 47 48 48 48 48 48 48 49 50 52 54 55 56 62
40 44 44 46 44 45 45 46 48 47 48 48 47 47 47 47 47 47 46 47 48 48 50 51 52 54 55
40 40 42 44 43 41 40 44 42 46 47 47 47 46 47 47 46 46 46 47 48 49 49 50 51 52 53
38 39 40 40 39 40 39 39 39 44 43 45 46 46 47 47 47 45 45 46 46 46 46 47 48 49 50
38 38 39 40 41 39 37 34 32 45 42 40 45 43 45 46 45 44 45 45 45 44 45 45 45 46 48
37 38 38 40 38 35 36 36 36 41 40 37 42 41 45 47 44 44 44 44 44 44 44 44 44 44 46
40 39 40 40 38 38 37 37 39 41 41 33 40 39 44 44 44 44 43 43 43 43 43 43 43 44 45
41 41 41 41 41 39 35 34 32 35 39 35 37 37 39 41 44 43 42 42 42 42 42 42 43 43 42
40 41 41 41 40 39 36 32 31 30 37 33 33 33 31 39 41 42 42 42 42 42 41 41 42 41 40
39 38 39 39 39 39 38 34 31 30 36 34 31 31 31 31 37 40 40 41 40 40 41 41 41 41 38
35 35 35 35 35 36 36 34 34 31 33 32 28 29 28 28 30 37 38 39 39 37 38 40 41 41 42
33 33 34 35 34 32 33 34 33 33 34 33 32 31 29 28 29 31 33 35 37 37 37 37 38 39 36
32 34 34 32 31 32 30 31 29 30 33 34 33 32 28 30 31 30 33 29 35 36 35 36 38 39 39
31 31 31 31 30 31 30 28 25 26 28 32 34 33 31 29 26 30 32 32 33 34 34 33 36 38 39
30 29 28 27 27 28 28 26 25 27 27 29 29 28 29 32 34 30 31 31 33 34 33 31 33 38 40
28 28 28 27 27 27 26 25 25 26 27 28 26 25 22 22 32 38 30 31 31 31 32 33 32 34 38

GFSFLT2_sfc_temp_129.txt.gz
Temp
46 47 46 46 47 48 48 47 47 50 50 49 49 49 49 49 49 50 50 50 50 51 53 53 55 56 57
41 42 43 45 45 44 46 48 47 49 49 49 49 49 48 48 49 49 48 48 48 50 51 52 53 54 56
38 42 42 43 42 43 43 44 47 47 46 48 49 48 48 48 48 48 47 47 48 49 49 50 50 51 52
38 37 40 42 42 39 38 41 41 44 45 47 47 47 48 48 48 47 47 46 47 48 48 47 47 49 50
36 37 37 38 37 39 37 38 38 40 40 41 42 42 43 46 46 47 46 46 46 46 46 47 46 47 47
35 34 36 37 39 37 34 32 30 40 38 37 40 39 41 43 46 47 46 46 45 45 45 45 45 45 46
35 35 35 37 36 34 34 34 33 37 37 33 38 36 40 44 45 45 45 45 45 44 44 44 44 45 45
39 38 38 38 37 37 35 34 35 37 38 30 36 34 38 39 43 43 44 45 44 44 44 44 44 43 44
43 42 42 43 42 38 32 30 29 31 36 32 33 32 34 34 38 44 44 43 43 43 43 43 43 43 41
38 39 41 39 41 37 34 29 28 27 33 30 29 30 26 33 34 36 38 42 42 42 42 42 42 38 38
36 36 36 36 36 35 35 32 28 27 33 32 27 27 27 26 30 33 35 36 36 37 40 40 41 41 35
33 33 32 32 32 32 32 31 31 30 32 31 26 26 25 24 25 30 32 34 34 33 33 38 39 40 41
31 31 31 32 31 31 31 32 31 31 33 31 29 28 27 26 25 26 28 30 32 30 32 32 33 34 33
30 31 32 31 30 31 29 29 28 28 31 31 30 29 26 27 27 26 27 25 30 31 30 31 33 34 34
31 30 30 30 29 30 28 28 25 25 25 28 30 31 30 28 25 27 27 27 29 29 29 29 30 32 34
30 29 27 26 27 28 27 26 24 25 25 26 27 25 25 27 32 26 28 27 29 30 29 26 27 31 34
27 27 27 27 27 26 26 26 24 24 24 26 25 23 20 18 25 35 26 27 27 27 28 27 26 29 32

GFSFLT2_sfc_temp_135.txt.gz
Temp
36 36 36 36 38 39 40 40 40 47 49 49 48 49 49 50 50 50 50 50 50 50 50 51 52 53 53
34 33 34 36 36 35 41 44 40 46 48 47 47 48 49 49 48 48 49 49 49 49 49 49 50 51 51
32 33 33 34 33 35 36 37 42 44 45 46 46 47 47 47 47 47 47 47 48 48 48 48 49 49 49
30 30 30 33 32 31 32 34 35 40 41 42 44 44 45 45 45 44 45 46 47 48 48 47 47 48 48
29 28 29 29 29 30 31 32 34 34 32 33 35 36 36 41 41 43 44 45 46 46 46 47 47 47 47
29 28 28 29 29 29 29 30 28 33 30 32 33 33 34 34 41 44 43 44 44 44 45 46 46 46 46
30 30 30 31 31 31 30 28 30 34 31 30 30 30 32 38 41 42 43 43 43 44 45 45 45 45 45
33 33 32 34 35 36 33 33 34 33 30 25 30 29 30 31 39 40 41 42 42 42 42 42 43 43 44
42 42 43 43 42 37 30 26 27 27 29 26 25 26 30 30 32 38 40 39 40 40 41 41 41 42 40
35 35 37 35 40 34 30 24 24 23 28 24 27 28 24 26 27 30 31 36 38 38 39 40 40 36 34
35 32 31 30 31 30 30 26 21 23 29 28 24 23 25 25 25 27 28 30 30 32 36 38 38 38 32
31 29 28 29 28 27 28 27 27 28 30 28 14 20 23 23 23 27 27 29 29 28 29 33 36 37 38
30 29 28 28 28 26 27 28 27 28 32 29 26 25 26 24 23 24 26 27 28 27 28 27 28 29 27
29 29 28 24 25 27 27 25 24 26 29 29 27 26 24 24 24 23 26 23 26 27 27 28 29 30 29
27 27 29 30 29 29 28 26 23 23 24 26 27 27 26 24 22 24 24 24 26 26 25 25 27 30 31
25 25 27 26 26 26 25 24 23 24 23 24 21 14 22 25 30 24 24 24 25 26 26 23 24 28 30
26 26 26 25 26 25 23 23 23 23 23 24 21 19 18 17 26 34 25 25 24 24 26 25 23 25 27

GFSFLT2_sfc_temp_138.txt.gz
Temp
34 35 34 35 37 37 38 38 39 46 48 48 48 48 48 49 49 49 49 50 50 50 51 51 51 52 53
32 32 32 34 34 33 39 42 37 44 46 46 47 47 47 48 47 47 47 47 47 48 49 50 50 50 51
29 31 31 32 32 33 34 34 39 43 44 45 45 46 46 46 46 46 46 45 46 47 48 49 49 49 50
29 28 29 31 30 29 29 31 32 38 40 41 43 43 44 43 44 43 44 44 45 46 47 47 46 47 49
29 28 28 28 28 29 29 29 29 32 31 32 33 34 36 39 40 41 43 44 44 45 46 46 46 47 48
28 28 28 29 28 29 28 26 26 32 30 32 33 33 33 34 39 42 43 43 44 44 44 45 46 46 46
30 28 28 29 29 28 28 28 29 34 33 31 31 31 32 36 39 41 42 42 42 43 44 44 44 44 44
32 33 32 33 32 34 32 32 32 34 31 26 30 29 30 31 38 39 40 41 41 41 42 42 42 42 43
42 41 42 43 42 36 31 28 28 30 30 27 26 25 29 30 31 37 39 39 40 40 40 40 40 41 39
35 36 38 34 40 35 31 27 27 23 28 25 25 26 23 26 26 28 29 35 37 38 39 39 39 35 32
33 33 34 31 31 31 31 29 24 25 29 25 24 23 26 25 26 26 27 29 30 31 35 36 37 37 31
32 32 31 29 29 29 29 27 28 28 29 28 15 20 19 23 23 26 26 26 27 28 28 32 35 36 38
31 31 31 31 29 27 28 28 28 28 31 28 22 24 21 23 23 25 26 27 27 26 26 27 27 28 26
31 32 30 25 25 27 24 25 23 26 28 28 27 25 24 25 25 24 26 22 24 26 26 27 28 29 28
29 29 29 28 27 26 28 25 23 23 23 23 26 27 26 24 22 25 25 24 26 25 25 24 26 27 28
27 26 25 24 25 26 23 23 23 22 22 23 21 14 22 25 29 23 25 24 25 26 26 23 23 27 29
26 22 23 26 27 25 22 22 22 22 21 22 19 22 18 17 25 34 25 25 25 25 25 24 23 26 28